Погода в Болхунах

Россия / Астраханская область     47°59′17″N   46°25′19″E
темп.,
°C
ветер,
м/с
пор.,
м/с
влажн.,
%
обл.,
%
осадки,
мм/ч
давл.,
гПа
погр.,
м
22 апреля, чт
чт2201:00+10с22801 0.0 102118
04:00+10сз3380100 0.0 102126
07:00+10ссз3583100 0.0 1022101
10:00+14с3363100 0.0 1023479
13:00+16ссз1254100 0.0 1023998
16:00+18св23456 0.0 10221707
19:00+17вюв335366 0.0 102278
22:00+14юв336275 0.0 102366
23 апреля, пт
пт2301:00+11в3374100 0.0 102241
04:00+10всв3583100 0.0 1022112
07:00+10св487699 0.0 1021261
10:00+13ссв4557100 0.0 1021539
13:00+14ссв4555100 0.0 1020824
16:00+14с4556100 0.0 1019922
19:00+14ссз346292 0.0 1019207
22:00+11ссв22715 0.0 101916
24 апреля, сб
сб2401:00+10с22755 0.0 101811
04:00+8всв00815 0.0 101710
07:00+10ююз2276100 0.0 101831
10:00+15юз456055 0.0 1017720
13:00+19зюз684030 0.0 10162428
16:00+16зюз7115439 0.0 10161216
19:00+16зюз595592 0.0 1016522
22:00+13зюз410688 0.0 1017293
25 апреля, вс
вс2501:00+11з48833 0.0 1018252
04:00+9зюз368647 0.0 1019140
07:00+9зюз3777100 0.0 1019245
10:00+13з575837 0.0 1020951
13:00+15з674079 0.0 10201788
16:00+15з5636100 0.0 10191686
19:00+13зсз4544100 0.0 1019300
22:00+12с1145100 0.0 101919
26 апреля, пн
пн2601:00+11в2351100 0.2 1018114
04:00+8юв1282100 1.2 1018256
07:00+8зюз1180100 0.6 1016173
10:00+9зюз1179100 1.2 1018254
13:00+12юз3357100 0.0 10171039
16:00+14з464890 0.0 10161453
19:00+14зсз4747100 0.0 1016219
22:00+11зсз4755100 0.0 1017129